Location: Ash Shall?l al Awwal
(24.0167°N, 32.8667°E)
Time: 10:37:13
(UTC+00:00)

APEX - Pass Details

Date: 02 March 2021
Orbit: 332 x 1081 km, 69.9° (Epoch: 15 April)

Event Time Altitude Azimuth Distance (km) Brightness Sun altitude
Rises 17:04:02 0° 340° (NNW) 2,101 6.6 -17.3°
Reaches altitude 10° 17:05:56 10° 340° (NNW) 1,265 5.4 -17.7°
Maximum altitude 17:08:38 86° 252° (WSW) 348 2.2 -18.3°
Enters shadow 17:08:50 74° 175° (S) 362 2.3 -18.4°
